Regional Weather Roundup
Issued by NWS Albany, NY

Current Version | Previous Version | Graphics & Text | Print | Product List | Glossary Off
Versions: 1 2 3 4 5 6 7 8 9 10 11 12 13 14 15 16 17 18 19 20 21 22 23 24 25 26 27 28 29 30 31 32 33 34 35 36 37 38 39 40 41 42 43 44 45 46 47 48 49 50

197
ASUS41 KALY 211210
RWRALY

NEW YORK STATE HOURLY WEATHER ROUNDUP
NATIONAL WEATHER SERVICE ALBANY NY
800 AM EDT MON AUG 21 2017

NOTE: "FAIR" INDICATES FEW OR NO CLOUDS BELOW 12,000 FEET WITH NO
SIGNIFICANT WEATHER AND/OR NO OBSTRUCTIONS TO VISIBILITY.

NYZ032-033-038>043-046>054-057>066-NYZ062>081-082-084-211300-
EAST


CITY           SKY/WX    TMP DP  RH WIND       PRES   REMARKS
ALBANY         PTSUNNY   65  61  87 S5        30.18S
GLENS FALLS    MOSUNNY   63  60  90 CALM      30.17S
POUGHKEEPSIE   MOSUNNY   66  61  84 E3        30.19R
NEWBURGH       MOSUNNY   66  64  94 W7        30.22R
MONTGOMERY     SUNNY     66  63  90 SW3       30.21R
WHITE PLAINS   SUNNY     71  63  75 W7        30.21R
ISLIP          PTSUNNY   73  64  73 SW5       30.20R
NEW YORK CITY  SUNNY     77  65  66 SW3       30.19R
CENTRAL PARK   SUNNY     74  63  68 VRB3      30.23R
$$

NYZ005>009-017-018-044>046-055-056-211300-
CENTRAL


CITY           SKY/WX    TMP DP  RH WIND       PRES   REMARKS
FULTON         MOSUNNY   66  63  90 CALM      30.15R
SYRACUSE       PTSUNNY   64  62  93 E5        30.14S
ROME           MOSUNNY   63  61  93 SE6       30.18R
ELMIRA         HAZE      60  28  29 CALM      30.19S VSB 1/8
BINGHAMTON     SUNNY     66  59  78 SW6       30.21S
MONTICELLO     SUNNY     62  60  93 CALM      30.26R
$$

NYZ026>034-041>043-087-211300-
NORTH


CITY           SKY/WX    TMP DP  RH WIND       PRES   REMARKS
WATERTOWN      MOSUNNY   68  62  81 S3        30.12S
FORT DRUM      NOT AVBL
OGDENSBURG     FAIR      67  65  94 S6        30.10S
MASSENA        MOSUNNY   68  64  87 SW9       30.10S
SARANAC LAKE   PTSUNNY   59  59 100 CALM      30.17R
PLATTSBURGH    MOSUNNY   68  62  81 S6        30.11S
$$

NYZ001>004-010>016-019>021-085-211300-
WEST


CITY           SKY/WX    TMP DP  RH WIND       PRES   REMARKS
NIAGARA FALLS  CLOUDY    72  62  71 S8        30.11S
BUFFALO        PTSUNNY   70  59  68 S5        30.12S
DUNKIRK        CLOUDY    68  67  96 CALM      30.13R THUNDER
JAMESTOWN      CLOUDY    65  59  81 S6        30.19R
WELLSVILLE     PTSUNNY   64  59  83 S5        30.23S
ROCHESTER      MOSUNNY   68  60  75 SW8       30.13S
PENN YAN       MOSUNNY   67  60  78 SW9       30.17S
$$

             KEY
       WCI = WIND CHILL INDEX
       VSB = VISIBILITY
       HX  = HEAT INDEX
$$




USA.gov is the U.S. government's official web portal to all federal, state and local government web resources and services.